Location: Biharia
(46.4333°N, 22.8000°E)
Time: 17:46:35
(UTC+00:00)

CSL-04 Rocket - Pass Details

Date: 05 June 2022
Orbit: 807 x 859 km, 98.9° (Epoch: 27 June)

Event Time Altitude Azimuth Distance (km) Brightness Sun altitude
Rises 18:59:26 0° 194° (SSW) 3,336 6.5 -6.5°
Reaches altitude 10° 19:02:02 10° 205° (SSW) 2,417 5.9 -6.8°
Maximum altitude 19:06:41 30° 265° (W) 1,464 5.5 -7.4°
Drops below altitude 10° 19:11:25 10° 326° (NW) 2,463 7.7 -8.0°
Sets 19:14:07 0° 337° (NNW) 3,411 8.4 -8.3°
